Вернуться в каталог

STARLINK-11369

АктивенСвязьVLEO
NORAD 62095·PAYLOAD·🇺🇸 United States

Запущен Nov 25, 2024 с Cape Canaveral Space Force Station

Loading…

Ближайшие Пролёты (ближайшие 24 часа)

TLE

СвежийSource: CelesTrak SupGP

Эпоха: Sep 14, 2026, 20:48 UTC

1 62095C 24220H   26257.86715278 -.00008757  00000+0 -67981-4 0  2578
2 62095  43.0006 342.6255 0001606 275.0609 225.7038 15.70854842    18

Отслеживайте STARLINK-11369 в реальном времени с AllMySat

Download on the App Store